KAL531 RKPC-RJFF

Flight info

Callsign KAL531
Flight time N/A
Altitude 29000
Route DCT TAMNA Y677 SAMDO A595 IKE IKIE
Aircraft B77L/H-SDE1E2E3FGHIJ2J3J4J5M1RWXY/LB1D1

Departure

Time 2026-05-08 03:26
Airport Jeju International Airport (RKPC)

Arrival

Time N/A
Airport Fukuoka Airport (RJFF)
Time Latitude Longitude Altitude Speed Heading
2026-05-08 03:16 33.50704 126.49857 107 ft 0 kts 218°
2026-05-08 03:17 33.50704 126.49858 106 ft 2 kts 218°
2026-05-08 03:17 33.50717 126.49871 106 ft 2 kts 223°
2026-05-08 03:18 33.50727 126.49886 107 ft 2 kts 257°
2026-05-08 03:18 33.50727 126.49906 106 ft 2 kts 298°
2026-05-08 03:18 33.50723 126.49913 106 ft 0 kts 309°
2026-05-08 03:20 33.50723 126.49914 106 ft 0 kts 309°
2026-05-08 03:22 33.50742 126.49886 106 ft 10 kts 308°
2026-05-08 03:22 33.50783 126.49815 106 ft 11 kts 304°
2026-05-08 03:22 33.50828 126.49737 104 ft 12 kts 304°
2026-05-08 03:22 33.50875 126.49652 103 ft 13 kts 304°
2026-05-08 03:23 33.50926 126.49563 99 ft 13 kts 307°
2026-05-08 03:23 33.51005 126.49544 98 ft 13 kts 40°
2026-05-08 03:23 33.51075 126.49615 97 ft 14 kts 20°
2026-05-08 03:23 33.51163 126.49655 98 ft 14 kts 21°
2026-05-08 03:24 33.51254 126.49703 93 ft 15 kts 35°
2026-05-08 03:24 33.51323 126.49798 93 ft 15 kts 44°
2026-05-08 03:24 33.51400 126.49809 94 ft 12 kts 333°
2026-05-08 03:24 33.51467 126.49755 92 ft 12 kts 302°
2026-05-08 03:25 33.51442 126.49665 92 ft 17 kts 237°
2026-05-08 03:25 33.51262 126.49317 96 ft 84 kts 238°
2026-05-08 03:25 33.50843 126.48501 96 ft 143 kts 239°
2026-05-08 03:25 33.50239 126.47317 104 ft 187 kts 241°
2026-05-08 03:26 33.49579 126.45959 539 ft 189 kts 243°
2026-05-08 03:26 33.48894 126.44585 1084 ft 194 kts 238°
2026-05-08 03:26 33.48126 126.43149 1473 ft 215 kts 240°
2026-05-08 03:26 33.47260 126.41593 1875 ft 234 kts 244°
2026-05-08 03:27 33.46349 126.39867 2388 ft 257 kts 244°
2026-05-08 03:27 33.45401 126.37992 3236 ft 266 kts 245°
2026-05-08 03:27 33.44421 126.36067 4189 ft 271 kts 244°
2026-05-08 03:27 33.43258 126.34247 5003 ft 286 kts 223°
2026-05-08 03:28 33.41430 126.33263 5741 ft 301 kts 187°
2026-05-08 03:28 33.39316 126.33506 6603 ft 303 kts 167°
2026-05-08 03:28 33.37216 126.34017 7333 ft 310 kts 171°
2026-05-08 03:28 33.35123 126.34425 8278 ft 309 kts 173°
2026-05-08 03:29 33.33020 126.34973 9057 ft 314 kts 158°
2026-05-08 03:29 33.31224 126.36478 9800 ft 320 kts 128°
2026-05-08 03:29 33.30156 126.38793 10463 ft 323 kts 101°
2026-05-08 03:29 33.29991 126.41504 10710 ft 335 kts 79°
2026-05-08 03:30 33.30725 126.47426 11107 ft 386 kts 77°
2026-05-08 03:30 33.31526 126.54005 12194 ft 410 kts 79°
2026-05-08 03:31 33.32782 126.60653 13366 ft 411 kts 55°
2026-05-08 03:31 33.35931 126.66410 14443 ft 425 kts 58°
2026-05-08 03:32 33.37108 126.69696 15139 ft 435 kts 66°
2026-05-08 03:32 33.38432 126.75999 16311 ft 449 kts 76°
2026-05-08 03:32 33.38994 126.79705 16915 ft 456 kts 77°
2026-05-08 03:33 33.39552 126.83479 17518 ft 463 kts 77°
2026-05-08 03:33 33.40118 126.87296 18134 ft 469 kts 77°
2026-05-08 03:33 33.40699 126.91161 18698 ft 475 kts 77°
2026-05-08 03:33 33.41296 126.95085 19199 ft 482 kts 77°
2026-05-08 03:34 33.41907 126.99067 19684 ft 488 kts 77°
2026-05-08 03:34 33.43132 127.07031 20656 ft 500 kts 77°
2026-05-08 03:34 33.43770 127.11187 21149 ft 506 kts 77°
2026-05-08 03:35 33.44407 127.15357 21628 ft 512 kts 77°
2026-05-08 03:35 33.45051 127.19581 22079 ft 518 kts 78°
2026-05-08 03:35 33.45701 127.23854 22525 ft 524 kts 78°
2026-05-08 03:35 33.46360 127.28196 22963 ft 530 kts 78°
2026-05-08 03:36 33.47027 127.32605 23403 ft 536 kts 78°
2026-05-08 03:36 33.47654 127.37030 23814 ft 542 kts 80°
2026-05-08 03:36 33.48202 127.41511 24204 ft 546 kts 81°
2026-05-08 03:36 33.48710 127.46031 24635 ft 549 kts 82°
2026-05-08 03:37 33.49210 127.50580 25053 ft 552 kts 82°
2026-05-08 03:37 33.49711 127.55108 25453 ft 556 kts 82°
2026-05-08 03:37 33.50232 127.59718 25838 ft 560 kts 82°
2026-05-08 03:37 33.50767 127.64372 26224 ft 564 kts 82°
2026-05-08 03:38 33.51309 127.69041 26726 ft 565 kts 82°
2026-05-08 03:38 33.51852 127.73712 27138 ft 565 kts 82°
2026-05-08 03:38 33.52392 127.78372 27077 ft 565 kts 82°
2026-05-08 03:38 33.52930 127.83037 27090 ft 563 kts 82°
2026-05-08 03:39 33.53467 127.87720 27176 ft 572 kts 82°
2026-05-08 03:39 33.54009 127.92470 27514 ft 577 kts 82°
2026-05-08 03:39 33.54550 127.97230 28099 ft 576 kts 83°
2026-05-08 03:39 33.55087 128.01975 28731 ft 574 kts 83°
2026-05-08 03:40 33.55622 128.06717 29138 ft 576 kts 83°
2026-05-08 03:40 33.56692 128.16246 29076 ft 574 kts 83°
2026-05-08 03:41 33.57751 128.25738 29085 ft 577 kts 83°
2026-05-08 03:41 33.58830 128.35412 29088 ft 593 kts 83°
2026-05-08 03:42 33.59990 128.45317 29009 ft 602 kts 82°
2026-05-08 03:42 33.60577 128.50272 28508 ft 597 kts 82°
2026-05-08 03:42 33.61154 128.55159 28279 ft 583 kts 82°
2026-05-08 03:42 33.61702 128.59846 28119 ft 569 kts 83°
2026-05-08 03:43 33.62241 128.64493 27947 ft 556 kts 83°
2026-05-08 03:43 33.62765 128.69038 27685 ft 546 kts 83°
2026-05-08 03:43 33.63277 128.73516 27319 ft 539 kts 83°
2026-05-08 03:43 33.63784 128.77957 26842 ft 535 kts 83°
2026-05-08 03:44 33.64285 128.82370 26338 ft 532 kts 83°
2026-05-08 03:44 33.64783 128.86757 25845 ft 529 kts 82°
2026-05-08 03:44 33.65277 128.91125 25398 ft 526 kts 82°
2026-05-08 03:44 33.65766 128.95461 24986 ft 522 kts 82°
2026-05-08 03:45 33.66250 128.99760 24578 ft 518 kts 82°
2026-05-08 03:45 33.66729 129.04029 24166 ft 514 kts 82°
2026-05-08 03:45 33.67204 129.08276 23742 ft 511 kts 82°
2026-05-08 03:45 33.67673 129.12491 23273 ft 508 kts 82°
2026-05-08 03:46 33.68138 129.16676 22822 ft 504 kts 82°
2026-05-08 03:46 33.68598 129.20824 22416 ft 499 kts 82°
2026-05-08 03:46 33.69052 129.24931 22014 ft 494 kts 82°
2026-05-08 03:46 33.69500 129.29006 21612 ft 490 kts 82°
2026-05-08 03:47 33.69946 129.33049 21207 ft 486 kts 82°
2026-05-08 03:47 33.70388 129.37053 20805 ft 482 kts 82°
2026-05-08 03:47 33.70825 129.41024 20407 ft 478 kts 82°
2026-05-08 03:47 33.71258 129.44967 20003 ft 474 kts 82°
2026-05-08 03:48 33.71687 129.48888 19619 ft 471 kts 81°
2026-05-08 03:48 33.72110 129.52764 19238 ft 467 kts 81°
2026-05-08 03:48 33.72529 129.56620 18858 ft 463 kts 81°
2026-05-08 03:48 33.72943 129.60438 18489 ft 460 kts 81°
2026-05-08 03:49 33.73353 129.64230 18093 ft 456 kts 81°
2026-05-08 03:49 33.73759 129.67997 17677 ft 452 kts 81°
2026-05-08 03:49 33.74156 129.71679 17302 ft 447 kts 81°
2026-05-08 03:49 33.74552 129.75372 16877 ft 444 kts 81°
2026-05-08 03:50 33.75106 129.78989 16483 ft 434 kts 69°
2026-05-08 03:50 33.76231 129.82316 16049 ft 427 kts 60°
2026-05-08 03:50 33.77506 129.85515 15646 ft 423 kts 60°
2026-05-08 03:50 33.78745 129.88702 15263 ft 420 kts 61°
2026-05-08 03:51 33.79928 129.91903 14876 ft 416 kts 62°
2026-05-08 03:51 33.81069 129.95081 14525 ft 412 kts 62°
2026-05-08 03:51 33.82114 129.98249 14108 ft 407 kts 71°
2026-05-08 03:51 33.82383 130.01664 13529 ft 413 kts 96°
2026-05-08 03:52 33.81644 130.04947 13331 ft 399 kts 117°
2026-05-08 03:52 33.80172 130.07677 13237 ft 379 kts 137°
2026-05-08 03:52 33.78252 130.09706 13138 ft 358 kts 152°
2026-05-08 03:52 33.76158 130.11052 13037 ft 333 kts 169°
2026-05-08 03:53 33.73994 130.11746 12853 ft 316 kts 175°
2026-05-08 03:53 33.71879 130.12347 12624 ft 308 kts 175°
2026-05-08 03:53 33.69814 130.12939 12309 ft 304 kts 174°
2026-05-08 03:53 33.67757 130.13535 11902 ft 303 kts 174°
2026-05-08 03:54 33.65703 130.14137 11489 ft 303 kts 174°
2026-05-08 03:54 33.63663 130.14741 11122 ft 301 kts 173°
2026-05-08 03:54 33.61656 130.15340 10765 ft 300 kts 173°
2026-05-08 03:54 33.59635 130.15944 10410 ft 298 kts 172°
2026-05-08 03:55 33.57619 130.16549 10070 ft 297 kts 172°
2026-05-08 03:55 33.55635 130.17219 9661 ft 296 kts 161°
2026-05-08 03:55 33.53886 130.18572 9095 ft 303 kts 144°
2026-05-08 03:55 33.52235 130.20170 8701 ft 303 kts 144°
2026-05-08 03:56 33.50612 130.21737 8492 ft 296 kts 144°
2026-05-08 03:56 33.49026 130.23249 8359 ft 293 kts 145°
2026-05-08 03:56 33.47416 130.24777 8254 ft 295 kts 145°
2026-05-08 03:56 33.45798 130.26305 8106 ft 297 kts 145°
2026-05-08 03:57 33.44170 130.27838 8009 ft 298 kts 145°
2026-05-08 03:57 33.42538 130.29369 7850 ft 298 kts 145°
2026-05-08 03:57 33.40910 130.30894 7701 ft 295 kts 145°
2026-05-08 03:57 33.39319 130.32389 7437 ft 292 kts 145°
2026-05-08 03:58 33.37711 130.33893 7007 ft 294 kts 144°
2026-05-08 03:58 33.36114 130.35402 6643 ft 291 kts 146°
2026-05-08 03:58 33.34516 130.36841 6450 ft 283 kts 144°
2026-05-08 03:58 33.32975 130.38281 6239 ft 281 kts 143°
2026-05-08 03:59 33.31726 130.40037 6045 ft 279 kts 113°
2026-05-08 03:59 33.31288 130.42302 5916 ft 285 kts 85°
2026-05-08 03:59 33.31714 130.44574 5671 ft 283 kts 59°
2026-05-08 03:59 33.32815 130.46454 5473 ft 271 kts 45°
2026-05-08 04:00 33.34000 130.48191 5204 ft 267 kts 46°
2026-05-08 04:00 33.35149 130.49903 4980 ft 262 kts 47°
2026-05-08 04:00 33.36266 130.51584 4811 ft 255 kts 47°
2026-05-08 04:00 33.37356 130.53226 4560 ft 247 kts 47°
2026-05-08 04:01 33.38402 130.54808 4290 ft 239 kts 46°
2026-05-08 04:01 33.39571 130.56084 4080 ft 217 kts 19°
2026-05-08 04:01 33.40931 130.56304 3995 ft 185 kts 342°
2026-05-08 04:01 33.42074 130.55836 4012 ft 171 kts 337°
2026-05-08 04:02 33.43184 130.55320 4004 ft 168 kts 335°
2026-05-08 04:02 33.44279 130.54839 3842 ft 169 kts 336°
2026-05-08 04:02 33.45351 130.54236 3533 ft 170 kts 330°
2026-05-08 04:02 33.46360 130.53507 3225 ft 170 kts 325°
2026-05-08 04:03 33.47010 130.52949 2899 ft 174 kts 323°
2026-05-08 04:03 33.49412 130.51342 2168 ft 160 kts 329°
2026-05-08 04:03 33.50046 130.50901 1966 ft 153 kts 327°
2026-05-08 04:04 33.50928 130.50263 1564 ft 145 kts 329°
2026-05-08 04:04 33.51812 130.49669 1289 ft 147 kts 329°
2026-05-08 04:04 33.52715 130.49093 1116 ft 148 kts 329°
2026-05-08 04:04 33.53620 130.48456 910 ft 153 kts 329°
2026-05-08 04:05 33.54537 130.47834 721 ft 153 kts 326°
2026-05-08 04:05 33.55468 130.47192 539 ft 156 kts 326°
2026-05-08 04:05 33.56424 130.46549 328 ft 159 kts 326°
2026-05-08 04:05 33.57384 130.45895 116 ft 157 kts 327°
2026-05-08 04:06 33.58281 130.45288 40 ft 137 kts 327°
2026-05-08 04:06 33.58979 130.44805 29 ft 75 kts 334°
2026-05-08 04:06 33.49224 130.51465 2216 ft 163 kts 330°
2026-05-08 04:06 33.50169 130.50807 1896 ft 153 kts 327°
2026-05-08 04:07 33.57604 130.45746 86 ft 154 kts 327°
2026-05-08 04:07 33.58466 130.45155 38 ft 134 kts 327°